#timestamp,LO_Frequency,Hit,StdDev 
1669064415.8,286046998.3,N
1669064435.6,286046999.0,N
1669064455.5,286046998.2,N
1669064475.3,286046999.4,N
1669064495.1,286046996.5,N
1669064515.9,286046997.9,N
1669064535.7,286046997.4,N
1669064555.6,286046996.8,N
1669064575.4,286046997.3,N
1669064595.2,286046997.4,N
1669064615.1,286046997.6,N
1669064616.0,286046997.6,N
1669064635.8,286046997.9,N
1669064655.7,286046997.4,N
1669064675.5,286046998.0,N
1669064695.3,286046997.5,N
1669064715.2,286046994.9,Y
1669064735.0,286046996.6,P
1669064735.9,286046996.6,P
1669064755.7,286046999.2,N
1669064775.6,286046997.1,N
1669064795.4,286046996.9,N
1669064815.3,286046997.1,N
1669064835.1,286046995.6,Y
1669064836.0,286046995.6,P
1669064855.8,286046999.2,N
1669064875.7,286046999.1,N
1669064895.5,286046998.8,N
1669064915.4,286046998.8,N
1669064935.2,286046999.5,N
1669064955.0,286046999.4,N
1669064955.9,286046999.4,N
1669064975.8,286046998.7,N
1669064995.6,286047001.2,N
1669065015.4,286046999.3,N
1669065035.3,286046998.4,N
1669065055.1,286046998.9,N
1669065075.9,286046996.6,N
1669065095.7,286046996.8,N
1669065115.5,286046997.2,N
1669065135.4,286046996.8,N
1669065155.2,286046998.9,N
1669065175.0,286046997.0,N
1669065175.9,286046997.0,N
1669065195.8,286046999.6,N
1669065215.6,286046996.7,N
1669065235.5,286046996.8,N
1669065255.3,286046996.8,N
1669065275.1,286046997.3,N
1669065295.9,286046997.2,N
1669065315.7,286046996.2,N
1669065335.6,286046995.9,Y
1669065355.4,286046997.3,P
1669065375.2,286046998.0,P
1669065395.1,286046995.4,P
1669065396.0,286046995.4,Y
1669065415.8,286046998.7,P
1669065435.7,286046998.3,N
1669065455.5,286046998.9,N
1669065475.3,286046997.1,Y
1669065495.2,286047000.6,P
1669065515.0,286047000.5,N
1669065515.9,286047000.5,N
1669065535.8,286047000.0,N
1669065555.6,286046999.8,N
1669065575.5,286047001.5,N
1669065595.3,286047001.3,N
1669065615.1,286047004.0,Y
1669065635.9,286047004.0,P
1669065655.7,286047002.1,N
1669065675.6,286047002.4,N
1669065695.4,286047002.5,N
1669065715.2,286047001.3,N
1669065735.1,286047002.5,N
1669065736.0,286047002.5,N
1669065755.8,286046999.7,N
1669065775.7,286047000.5,N
1669065795.5,286046999.7,N
1669065815.3,286047000.5,N
1669065835.2,286047001.2,N
1669065855.0,286046999.0,N
1669065855.9,286046999.0,N
1669065875.8,286047001.2,N
1669065895.6,286046998.2,N
1669065915.4,286046999.0,N
1669065935.3,286046998.1,N
1669065955.1,286046998.2,N
1669065975.8,286047000.8,N
1669065995.7,286047001.0,N
1669066015.5,286047000.5,N
1669066035.4,286047000.1,N
1669066055.2,286047000.4,N
1669066075.2,286046998.2,N
1669066095.1,286046998.5,N
1669066096.0,286046998.5,N
1669066115.8,286046999.2,N
1669066135.6,286046996.5,N
1669066155.5,286046996.5,N
1669066175.3,286046997.0,N
1669066195.2,286046996.9,N
1669066215.9,286046996.9,N
1669066235.7,286046998.4,N
1669066255.6,286047000.5,N
1669066275.4,286046998.3,N
1669066295.3,286046998.1,N
1669066315.1,286047000.7,N
1669066316.0,286047000.7,N
1669066335.8,286046998.6,N
1669066355.7,286047000.7,N
1669066375.5,286047001.0,N
1669066395.3,286046999.7,N
1669066415.2,286047000.9,N
1669066435.0,286046998.4,N
1669066435.9,286046998.4,N
1669066455.8,286046996.6,N
1669066475.6,286046999.2,N
1669066495.4,286046999.2,N
1669066515.3,286046999.1,N
1669066535.1,286046998.7,N
1669066555.9,286046998.8,N
1669066575.7,286046999.4,N
1669066595.5,286046999.2,N
1669066615.4,286046999.1,N
1669066635.2,286046996.7,N
1669066655.0,286046999.5,N
1669066656.0,286046999.5,N
1669066675.8,286046998.3,N
1669066695.6,286046997.0,N
1669066715.5,286046996.6,N
1669066735.3,286046999.1,N
1669066755.1,286046996.6,N
1669066775.9,286046996.6,N
1669066795.7,286046997.9,N
1669066815.6,286046997.4,N
1669066835.4,286046997.7,N
1669066855.2,286046997.4,N
1669066875.1,286046997.1,N
1669066876.0,286046997.1,N
1669066895.8,286046996.9,N
1669066915.6,286046997.5,N
1669066935.5,286046997.3,N
1669066955.3,286046997.4,N
1669066975.2,286046996.9,Y
1669066995.9,286047001.2,P
1669067015.7,286047000.9,N
1669067035.6,286046998.7,N
1669067055.4,286046999.1,N
1669067075.2,286046999.2,N
1669067095.1,286046999.3,N
1669067096.0,286046999.3,N
1669067115.8,286046996.9,Y
1669067135.7,286046999.2,P
1669067155.5,286046999.4,P
1669067175.4,286046999.2,P
1669067195.2,286046999.5,Y
1669067215.0,286046998.5,P
1669067215.9,286046998.5,P
1669067235.8,286046998.8,P
1669067255.6,286047001.2,Y
1669067275.5,286047001.0,P
1669067295.3,286047002.8,N
1669067315.1,286047000.2,N
1669067335.9,286047002.1,N
1669067355.7,286047002.5,N
1669067375.5,286047002.6,N
1669067395.4,286047002.5,N
1669067415.2,286047001.4,N
1669067435.1,286047001.5,N
1669067436.0,286047001.5,N
1669067455.8,286047004.3,Y
1669067475.6,286047011.9,P
1669067495.5,286047000.6,N
1669067515.3,286047000.6,N
1669067535.2,286047000.6,N
1669067555.9,286047000.9,N
1669067575.7,286047000.5,N
1669067595.6,286046999.8,N
1669067615.4,286047002.3,N
1669067635.2,286047002.8,N
1669067655.1,286047001.7,N
1669067656.0,286047001.7,N
1669067675.8,286047004.2,N
1669067695.7,286047003.9,N
1669067715.5,286047004.1,N
1669067735.3,286047001.3,N
1669067755.2,286047002.2,N
1669067775.0,286047002.0,N
1669067775.9,286047002.0,N
1669067795.8,286047001.3,N
1669067815.6,286047002.0,N
1669067835.4,286047002.0,N
1669067855.3,286047001.4,N
1669067875.1,286047003.6,N
1669067895.8,286047004.3,N
1669067915.7,286047004.0,N
1669067935.5,286047003.1,N
1669067955.4,286047003.2,N
1669067975.2,286047005.6,N
1669067995.0,286047005.7,N
1669067995.9,286047005.7,N
